DECAYED

THOR ABLESTAR DEB, 233 (Decayed)

Orbit data source: Space-Track

THOR ABLESTAR DEB, 233 was space debris in LEO originally from a launch on Thu, 29 Jun 1961 UTC launched from the Air Force Eastern Test Range (AFETR). Debris objects in space refer to the collection of defunct objects orbiting the Earth. Examples of debris include non-operational satellites, rocket bodies, and fragments generated from explosions, collisions, or faulty payload assembly.

Not visible in the next 10 days
Identifier
233, 1961-015BR
Orbit
Decayed
Country
Flag of USUS
Related business
Manufacturer
Unknown
Mission
Decayed spacecraft
Bus & Motor
Unknown
Mass
Unknown
Launch date (UTC)
1961-06-29 (65 years ago)
Launch vehicle
Unknown
Launch site
Air Force Eastern Test Range (AFETR)
Object type
Payload
Rocket body
Debris
Shape & HBR
Unknown shape, 0.2 m
Radar Cross Section
Medium (>0.1 m² and <1 m²)

Expand to show TLE details & history
Last TLE update: 4 months ago

TLE from 4 months ago
0 THOR ABLESTAR DEB
1   233U 61015BR  25275.71218380  .16427327  60821-5  63399-2 0  9998
2   233  66.7888 141.1931 0015577 233.6827 126.2931 16.23372779341727
Epoch: 2025-10-02T17:05Z
TLE epoch observation values (Epoch: 2025-10-02T17:05:32.680Z)
Latitude
-0.00005°
Longitude
-126.862°
Altitude
218.797 km
Speed
7.772 km/s
True Right ascension
09h 24m 46s
True Declination
0° 00' 00"
Sunlit
Object was in daylight at epoch
Visualization orbit readout
Latitude
Unknown
Longitude
Unknown
Altitude
Unknown
Speed
Unknown
Apparent Right ascension
Unknown
Apparent Declination
Unknown
Sunlit
N/A
Visualization observer readout
Local Sidereal Time
10:43:35
Azimuth
Unknown
Elevation
Unknown
Doppler factor
Unknown
Orbital elements
Apogee altitude
218.89 km
Perigee altitude
198.37 km
Semi-major axis
6,586.767 km
Eccentricity
0.00156
Inclination
66.7888°
RAAN
141.1931°
Arg. of periapsis
233.6827°
True anomaly
126.4368°
Mean anomaly
126.2931°
Eccentric anomaly
126.36497°
Mean motion
4.06008 °/min
Orbital period
88.67 mins
BSTAR
0.0063399
Loading maneuver chart data...
Computing Atmospheric mass density...

Documentation

Showing up to 5 results
|